FLOCK 2K-08 (42863 NORAD) Tracking and Keplerian Element Data

This shows tracking and keplerian element data for the satellite.

Feedback or suggestion? Click here.




ElementValue
Catalog42863
NameFLOCK 2K-08
Epoch Orbit3280
Epoch Day45.51598647
Epoch Year2018
RAAN308.3009
Inclination96.9927
Eccentricity0.001028
Argument of Perigee188.0952
Mean Anonmoly172.0128
Mean Motion15.35647415
Decay Rate7.813E-05
L11 42863U 17042AQ 18045.51598647 .00007813 00000-0 22721-3 0 9996
L22 42863 96.9927 308.3009 0010280 188.0952 172.0128 15.35647415 32809

Live tracking and technical data element details for FLOCK 2K-08 (NORAD 42863). FLOCK 2K-08 can be tracked NOW for your location showing map with azimuth and elevation plus other details from your city location.

Track the satellite on the map from your city or location and see movement details for azimuth, elevation, latitude, longitude, range, height, and movement on the map or in text.







IsCatalogInMostPopularTable: catalog: 42863, numindb: 137
Update: records affected: 1



GetName: 42863 FLOCK 2K-08

Hit Count: updated at: Sun, 16 Dec 2018 10:04:51 GMT